Main page
METAR-TAF:

METAR-TAF

Airports :

Ben Slimane Airport

Benslimane, Morocco

latitude: 33-39-20N, longitude: 007-13-17W, elevation: 191 m

Current weather observation

The report was made 23 minutes ago, at 03:00 UTC
Wind 5 kt from the South/Southeast
Temperature 12°C
Humidity 100%
Pressure 1019 hPa

METAR: GMMB 180300Z AUTO 15005KT //// R32/P2000N ////// 12/12 Q1019 NOSIG

Time: 03:23 (03:23 UTC)


TAF: missing

Weather observations and forecasts of more than 4000 airports (METAR and TAF reports).

The available stations are represented by yellow and red dots on the map.

Hover mouse over dot to see the name of the station.

Then click to see weather observations and forecasts.

To change the map : click on the green buttons with a black cross to zoom in, on the green button with a dash to zoom out, or on the green arrows for adjacent maps.


METAR-TAF: